TimeMDT,TemperatureF,Dew PointF,Humidity,Sea Level PressureIn,VisibilityMPH,Wind Direction,Wind SpeedMPH,Gust SpeedMPH,PrecipitationIn,Events,Conditions,WindDirDegrees,DateUTC
12:52 AM,60.1,55.0,83,30.15,10.0,ENE,3.5,-,N/A,,Clear,60,2013-06-28 06:52:00
1:52 AM,57.9,54.0,87,30.17,10.0,Calm,Calm,-,N/A,,Clear,0,2013-06-28 07:52:00
2:52 AM,55.9,53.1,90,30.17,10.0,Calm,Calm,-,N/A,,Clear,0,2013-06-28 08:52:00
3:52 AM,54.0,51.1,90,30.17,10.0,Calm,Calm,-,N/A,,Clear,0,2013-06-28 09:52:00
4:52 AM,53.1,51.1,93,30.16,10.0,East,3.5,-,N/A,,Clear,90,2013-06-28 10:52:00
5:52 AM,54.0,52.0,93,30.15,10.0,Calm,Calm,-,N/A,,Clear,0,2013-06-28 11:52:00
6:52 AM,62.1,57.0,84,30.15,10.0,Calm,Calm,-,N/A,,Clear,0,2013-06-28 12:52:00
7:52 AM,66.9,57.9,73,30.15,10.0,Calm,Calm,-,N/A,,Clear,0,2013-06-28 13:52:00
8:52 AM,73.9,59.0,59,30.15,10.0,Calm,Calm,-,N/A,,Clear,0,2013-06-28 14:52:00
9:52 AM,79.0,53.1,40,30.14,10.0,North,6.9,-,N/A,,Clear,350,2013-06-28 15:52:00
10:52 AM,80.1,52.0,38,30.15,10.0,North,10.4,-,N/A,,Clear,10,2013-06-28 16:52:00
11:52 AM,82.0,51.1,34,30.15,10.0,North,9.2,16.1,N/A,,Clear,10,2013-06-28 17:52:00
12:52 PM,82.9,51.1,33,30.13,10.0,North,8.1,16.1,N/A,,Clear,10,2013-06-28 18:52:00
1:52 PM,84.9,51.1,31,30.12,10.0,North,13.8,18.4,N/A,,Clear,360,2013-06-28 19:52:00
2:52 PM,86.0,51.1,30,30.11,10.0,North,13.8,24.2,N/A,,Clear,360,2013-06-28 20:52:00
3:52 PM,86.0,53.1,32,30.10,10.0,North,9.2,20.7,N/A,,Clear,10,2013-06-28 21:52:00
4:52 PM,84.9,51.1,31,30.09,10.0,North,12.7,-,N/A,,Clear,10,2013-06-28 22:52:00
5:52 PM,84.0,51.1,32,30.08,10.0,NNE,13.8,-,N/A,,Clear,30,2013-06-28 23:52:00
6:52 PM,82.0,51.1,34,30.06,10.0,NNE,12.7,-,N/A,,Clear,20,2013-06-29 00:52:00
7:52 PM,77.0,54.0,45,30.07,10.0,NE,5.8,-,N/A,,Clear,40,2013-06-29 01:52:00
8:52 PM,69.1,54.0,58,30.08,10.0,NE,6.9,-,N/A,,Clear,50,2013-06-29 02:52:00
9:52 PM,63.0,54.0,72,30.09,10.0,ENE,4.6,-,N/A,,Clear,70,2013-06-29 03:52:00
10:52 PM,61.0,54.0,78,30.10,10.0,ENE,3.5,-,N/A,,Clear,60,2013-06-29 04:52:00
11:52 PM,57.0,53.1,87,30.12,10.0,ESE,3.5,-,N/A,,Clear,120,2013-06-29 05:52:00